QPF
0.14 0.15 0.15 0.20 0.21 0.17 0.12 0.07 0.05 0.05 0.06 0.06 0.06 0.07 0.05 0.02 0.01 0.01 0.03 0.06 0.09 0.10 0.11 0.12 0.12 0.13 0.15 0.16 0.15 0.13 0.11 0.10 0.09 0.10 0.12 0.13 0.11 0.11 0.10 0.09 0.09 0.09 0.08
0.12 0.13 0.12 0.12 0.15 0.16 0.13 0.08 0.06 0.04 0.04 0.04 0.06 0.05 0.03 0.01 0.01 0.01 0.02 0.05 0.08 0.08 0.09 0.09 0.11 0.13 0.14 0.15 0.13 0.12 0.11 0.09 0.09 0.09 0.11 0.14 0.11 0.10 0.09 0.09 0.07 0.06 0.05
0.05 0.05 0.06 0.07 0.07 0.07 0.07 0.06 0.04 0.03 0.03 0.03 0.04 0.03 0.03 0.01 0.01 0.02 0.02 0.01 0.03 0.07 0.10 0.09 0.09 0.11 0.10 0.10 0.09 0.08 0.07 0.07 0.07 0.07 0.08 0.08 0.06 0.06 0.06 0.06 0.06 0.07 0.07
0.04 0.04 0.04 0.06 0.06 0.06 0.05 0.04 0.03 0.02 0.03 0.03 0.02 0.03 0.03 0.02 0.01 0.01 0.02 0.01 0.02 0.02 0.05 0.08 0.08 0.08 0.08 0.09 0.08 0.07 0.06 0.05 0.05 0.06 0.08 0.07 0.06 0.05 0.05 0.05 0.05 0.06 0.06
0.04 0.03 0.03 0.04 0.05 0.05 0.05 0.05 0.03 0.02 0.02 0.01 0.01 0.02 0.03 0.03 0.02 0.02 0.02 0.03 0.03 0.02 0.02 0.05 0.08 0.08 0.08 0.10 0.11 0.08 0.06 0.06 0.05 0.05 0.06 0.06 0.07 0.07 0.07 0.07 0.06 0.06 0.06
0.04 0.03 0.03 0.03 0.03 0.04 0.05 0.04 0.03 0.02 0.01 0.01 0.01 0.02 0.01 0.01 0.01 0.01 0.02 0.03 0.03 0.03 0.03 0.04 0.06 0.07 0.08 0.09 0.09 0.10 0.06 0.05 0.05 0.05 0.05 0.05 0.06 0.06 0.06 0.07 0.06 0.06 0.08
0.03 0.03 0.03 0.03 0.03 0.04 0.04 0.04 0.03 0.02 0.01 0.01 0.01 0.01 0.01 0.00 0.01 0.02 0.02 0.02 0.02 0.02 0.02 0.04 0.06 0.06 0.05 0.07 0.08 0.12 0.12 0.08 0.06 0.06 0.04 0.04 0.04 0.04 0.05 0.05 0.04 0.04 0.05
0.03 0.04 0.05 0.04 0.04 0.03 0.03 0.03 0.03 0.02 0.01 0.01 0.01 0.01 0.00 0.00 0.01 0.01 0.02 0.02 0.03 0.03 0.02 0.02 0.03 0.03 0.03 0.05 0.06 0.07 0.11 0.12 0.09 0.07 0.06 0.06 0.06 0.05 0.05 0.05 0.05 0.06 0.07
0.04 0.04 0.05 0.04 0.03 0.03 0.03 0.03 0.02 0.03 0.02 0.02 0.02 0.01 0.01 0.00 0.00 0.01 0.02 0.02 0.02 0.02 0.02 0.02 0.02 0.02 0.02 0.03 0.05 0.05 0.06 0.08 0.08 0.07 0.06 0.05 0.05 0.07 0.07 0.09 0.10 0.10 0.09
0.05 0.05 0.06 0.05 0.04 0.05 0.05 0.03 0.05 0.04 0.02 0.02 0.02 0.01 0.01 0.01 0.01 0.01 0.01 0.01 0.02 0.01 0.01 0.02 0.02 0.02 0.03 0.02 0.03 0.04 0.04 0.05 0.06 0.07 0.09 0.09 0.08 0.08 0.08 0.09 0.10 0.11 0.12
0.04 0.05 0.07 0.08 0.07 0.06 0.05 0.05 0.07 0.04 0.01 0.01 0.01 0.01 0.01 0.01 0.01 0.01 0.00 0.00 0.01 0.02 0.02 0.01 0.01 0.01 0.01 0.02 0.02 0.03 0.03 0.05 0.06 0.06 0.06 0.07 0.08 0.07 0.08 0.08 0.08 0.10 0.14
0.05 0.05 0.06 0.07 0.06 0.06 0.04 0.04 0.05 0.04 0.02 0.01 0.01 0.01 0.01 0.01 0.01 0.01 0.00 0.00 0.01 0.02 0.02 0.02 0.01 0.01 0.01 0.02 0.02 0.01 0.02 0.03 0.03 0.05 0.06 0.06 0.06 0.07 0.06 0.06 0.05 0.06 0.08
0.06 0.05 0.05 0.06 0.05 0.05 0.05 0.04 0.04 0.03 0.03 0.02 0.01 0.01 0.01 0.01 0.01 0.00 0.00 0.00 0.01 0.02 0.01 0.00 0.01 0.01 0.01 0.01 0.02 0.01 0.01 0.02 0.03 0.03 0.04 0.06 0.06 0.06 0.05 0.04 0.04 0.04 0.05
0.07 0.06 0.05 0.04 0.04 0.05 0.05 0.03 0.03 0.03 0.02 0.02 0.02 0.01 0.01 0.01 0.01 0.01 0.01 0.01 0.01 0.01 0.01 0.00 0.01 0.01 0.01 0.01 0.01 0.01 0.02 0.02 0.03 0.03 0.04 0.05 0.05 0.06 0.05 0.04 0.03 0.03 0.04
0.05 0.04 0.03 0.03 0.03 0.04 0.03 0.03 0.03 0.02 0.02 0.02 0.02 0.02 0.01 0.01 0.01 0.01 0.01 0.01 0.01 0.01 0.01 0.01 0.01 0.01 0.01 0.01 0.01 0.00 0.01 0.02 0.03 0.02 0.03 0.04 0.04 0.04 0.03 0.03 0.04 0.04 0.03
0.03 0.03 0.03 0.03 0.03 0.03 0.03 0.03 0.02 0.02 0.02 0.02 0.02 0.02 0.02 0.01 0.01 0.01 0.01 0.01 0.01 0.02 0.01 0.00 0.00 0.01 0.01 0.01 0.01 0.00 0.01 0.02 0.03 0.04 0.05 0.06 0.05 0.04 0.04 0.04 0.04 0.03 0.03
0.02 0.02 0.02 0.02 0.02 0.02 0.02 0.02 0.02 0.01 0.01 0.01 0.01 0.02 0.02 0.02 0.01 0.01 0.01 0.02 0.02 0.01 0.01 0.00 0.00 0.01 0.01 0.01 0.01 0.01 0.01 0.02 0.02 0.02 0.03 0.04 0.04 0.05 0.05 0.04 0.03 0.03 0.02
0.02 0.02 0.02 0.01 0.01 0.01 0.01 0.01 0.01 0.01 0.01 0.01 0.01 0.01 0.01 0.01 0.01 0.01 0.02 0.02 0.02 0.01 0.01 0.00 0.00 0.00 0.00 0.00 0.00 0.00 0.01 0.01 0.01 0.01 0.02 0.02 0.02 0.02 0.03 0.03 0.03 0.03 0.02
0.02 0.02 0.01 0.01 0.01 0.01 0.01 0.01 0.01 0.01 0.01 0.01 0.00 0.01 0.01 0.00 0.00 0.01 0.01 0.02 0.02 0.01 0.01 0.00 0.01 0.00 0.00 0.00 0.00 0.00 0.01 0.00 0.01 0.01 0.01 0.01 0.01 0.01 0.01 0.02 0.03 0.03 0.03
0.02 0.01 0.01 0.01 0.01 0.02 0.02 0.02 0.02 0.01 0.01 0.00 0.00 0.01 0.00 0.00 0.00 0.00 0.00 0.01 0.01 0.01 0.01 0.01 0.00 0.01 0.01 0.01 0.01 0.01 0.00 0.00 0.00 0.00 0.01 0.01 0.01 0.02 0.02 0.02 0.02 0.03 0.03
0.01 0.01 0.01 0.01 0.01 0.01 0.02 0.02 0.03 0.02 0.01 0.01 0.01 0.01 0.01 0.01 0.01 0.00 0.00 0.00 0.01 0.01 0.01 0.01 0.01 0.02 0.02 0.01 0.01 0.01 0.00 0.00 0.00 0.01 0.01 0.01 0.01 0.02 0.02 0.03 0.03 0.03 0.04
0.02 0.02 0.02 0.02 0.02 0.01 0.02 0.03 0.04 0.03 0.03 0.03 0.02 0.01 0.01 0.01 0.01 0.01 0.00 0.00 0.01 0.01 0.02 0.02 0.02 0.02 0.01 0.01 0.01 0.01 0.01 0.01 0.01 0.02 0.02 0.01 0.01 0.01 0.01 0.02 0.03 0.04 0.05
0.03 0.03 0.02 0.02 0.02 0.02 0.04 0.05 0.05 0.05 0.05 0.04 0.02 0.01 0.01 0.01 0.01 0.01 0.01 0.01 0.01 0.02 0.02 0.02 0.01 0.01 0.01 0.01 0.02 0.01 0.01 0.02 0.02 0.02 0.02 0.01 0.01 0.01 0.01 0.02 0.02 0.02 0.04
0.04 0.04 0.03 0.03 0.02 0.04 0.06 0.07 0.08 0.07 0.05 0.03 0.02 0.02 0.01 0.01 0.02 0.02 0.02 0.02 0.01 0.01 0.01 0.01 0.01 0.01 0.01 0.01 0.02 0.02 0.02 0.02 0.02 0.02 0.02 0.02 0.01 0.01 0.01 0.01 0.02 0.01 0.01
0.03 0.03 0.03 0.03 0.04 0.06 0.06 0.06 0.06 0.05 0.03 0.02 0.03 0.03 0.03 0.02 0.04 0.04 0.03 0.02 0.02 0.02 0.02 0.01 0.01 0.01 0.01 0.01 0.01 0.02 0.03 0.02 0.01 0.01 0.02 0.02 0.02 0.01 0.01 0.01 0.01 0.01 0.01
0.02 0.03 0.03 0.04 0.05 0.05 0.06 0.06 0.05 0.03 0.02 0.01 0.02 0.03 0.04 0.05 0.06 0.05 0.04 0.02 0.02 0.02 0.03 0.02 0.02 0.01 0.01 0.01 0.02 0.02 0.03 0.03 0.03 0.02 0.02 0.02 0.01 0.02 0.02 0.01 0.01 0.01 0.01
MSLP
1008.69 1008.39 1008.04 1007.66 1007.30 1007.00 1006.76 1006.60 1006.50 1006.44 1006.41 1006.39 1006.39 1006.39 1006.40 1006.44 1006.49 1006.55 1006.62 1006.70 1006.79 1006.90 1007.05 1007.27 1007.56 1007.92 1008.36 1008.84 1009.34 1009.85 1010.33 1010.80 1011.24 1011.70 1012.17 1012.69 1013.25 1013.84 1014.44 1015.02 1015.55 1016.02 1016.42
1009.37 1009.10 1008.75 1008.36 1007.98 1007.62 1007.32 1007.07 1006.88 1006.74 1006.64 1006.56 1006.50 1006.45 1006.42 1006.39 1006.36 1006.34 1006.32 1006.31 1006.32 1006.38 1006.51 1006.72 1007.03 1007.43 1007.91 1008.44 1008.98 1009.51 1010.01 1010.48 1010.93 1011.37 1011.84 1012.34 1012.89 1013.47 1014.07 1014.66 1015.20 1015.69 1016.12
1009.96 1009.73 1009.42 1009.07 1008.70 1008.34 1007.99 1007.69 1007.42 1007.20 1007.02 1006.87 1006.75 1006.65 1006.56 1006.47 1006.37 1006.27 1006.16 1006.07 1006.00 1006.00 1006.09 1006.28 1006.59 1007.01 1007.51 1008.06 1008.63 1009.18 1009.69 1010.16 1010.60 1011.04 1011.49 1011.97 1012.50 1013.07 1013.66 1014.25 1014.81 1015.33 1015.79
1010.41 1010.24 1010.00 1009.72 1009.40 1009.06 1008.71 1008.37 1008.04 1007.75 1007.50 1007.29 1007.11 1006.96 1006.82 1006.68 1006.53 1006.36 1006.18 1006.00 1005.87 1005.80 1005.82 1005.98 1006.26 1006.66 1007.16 1007.71 1008.28 1008.84 1009.35 1009.81 1010.24 1010.66 1011.09 1011.56 1012.07 1012.62 1013.20 1013.79 1014.36 1014.90 1015.40
1010.73 1010.61 1010.45 1010.25 1010.01 1009.71 1009.38 1009.03 1008.67 1008.32 1008.01 1007.75 1007.52 1007.34 1007.17 1007.00 1006.81 1006.60 1006.37 1006.13 1005.92 1005.77 1005.73 1005.81 1006.03 1006.39 1006.85 1007.37 1007.92 1008.45 1008.95 1009.40 1009.81 1010.22 1010.63 1011.08 1011.57 1012.11 1012.68 1013.26 1013.84 1014.40 1014.92
1010.96 1010.89 1010.80 1010.68 1010.51 1010.27 1009.97 1009.62 1009.24 1008.86 1008.51 1008.20 1007.96 1007.75 1007.58 1007.40 1007.21 1006.98 1006.71 1006.42 1006.14 1005.92 1005.78 1005.78 1005.91 1006.18 1006.57 1007.03 1007.52 1008.01 1008.47 1008.90 1009.30 1009.68 1010.08 1010.51 1010.99 1011.52 1012.08 1012.66 1013.24 1013.81 1014.35
1011.17 1011.13 1011.09 1011.03 1010.92 1010.73 1010.46 1010.11 1009.73 1009.33 1008.95 1008.63 1008.38 1008.19 1008.03 1007.87 1007.69 1007.47 1007.18 1006.86 1006.52 1006.22 1005.99 1005.87 1005.89 1006.05 1006.33 1006.69 1007.10 1007.52 1007.93 1008.32 1008.70 1009.06 1009.45 1009.87 1010.34 1010.86 1011.41 1011.99 1012.57 1013.14 1013.70
1011.43 1011.39 1011.38 1011.36 1011.28 1011.12 1010.87 1010.53 1010.13 1009.73 1009.35 1009.03 1008.79 1008.62 1008.50 1008.39 1008.24 1008.03 1007.75 1007.41 1007.02 1006.64 1006.32 1006.08 1005.97 1006.00 1006.14 1006.38 1006.68 1007.02 1007.36 1007.70 1008.04 1008.39 1008.77 1009.18 1009.65 1010.16 1010.71 1011.28 1011.86 1012.44 1013.01
1011.77 1011.72 1011.70 1011.69 1011.62 1011.47 1011.22 1010.89 1010.49 1010.09 1009.71 1009.41 1009.20 1009.07 1008.99 1008.92 1008.82 1008.64 1008.37 1008.02 1007.59 1007.15 1006.73 1006.39 1006.15 1006.03 1006.04 1006.14 1006.32 1006.55 1006.81 1007.09 1007.38 1007.71 1008.07 1008.48 1008.94 1009.45 1010.00 1010.58 1011.16 1011.75 1012.32
1012.18 1012.11 1012.07 1012.04 1011.97 1011.81 1011.55 1011.21 1010.82 1010.42 1010.06 1009.78 1009.60 1009.51 1009.48 1009.45 1009.39 1009.24 1008.99 1008.63 1008.18 1007.69 1007.20 1006.76 1006.41 1006.17 1006.03 1006.01 1006.06 1006.18 1006.34 1006.54 1006.78 1007.07 1007.41 1007.81 1008.28 1008.79 1009.35 1009.93 1010.52 1011.11 1011.70
1012.62 1012.52 1012.46 1012.41 1012.31 1012.13 1011.87 1011.52 1011.13 1010.74 1010.40 1010.15 1010.00 1009.94 1009.93 1009.94 1009.91 1009.78 1009.54 1009.19 1008.73 1008.21 1007.67 1007.16 1006.72 1006.37 1006.13 1005.97 1005.91 1005.91 1005.97 1006.09 1006.27 1006.52 1006.83 1007.22 1007.68 1008.20 1008.76 1009.35 1009.96 1010.56 1011.17
1013.01 1012.90 1012.82 1012.75 1012.63 1012.43 1012.16 1011.81 1011.43 1011.05 1010.73 1010.50 1010.36 1010.32 1010.33 1010.35 1010.32 1010.21 1009.97 1009.62 1009.16 1008.63 1008.07 1007.52 1007.03 1006.61 1006.28 1006.03 1005.86 1005.76 1005.73 1005.76 1005.87 1006.06 1006.34 1006.71 1007.17 1007.69 1008.26 1008.87 1009.48 1010.11 1010.73
1013.31 1013.20 1013.12 1013.03 1012.89 1012.69 1012.41 1012.07 1011.70 1011.34 1011.03 1010.81 1010.68 1010.63 1010.63 1010.64 1010.60 1010.47 1010.23 1009.88 1009.43 1008.90 1008.35 1007.80 1007.29 1006.83 1006.44 1006.13 1005.87 1005.69 1005.57 1005.52 1005.56 1005.70 1005.94 1006.28 1006.72 1007.24 1007.82 1008.44 1009.07 1009.71 1010.35
1013.50 1013.40 1013.31 1013.22 1013.08 1012.87 1012.60 1012.28 1011.92 1011.58 1011.29 1011.07 1010.92 1010.85 1010.82 1010.78 1010.71 1010.55 1010.29 1009.94 1009.50 1008.99 1008.46 1007.93 1007.43 1006.97 1006.56 1006.21 1005.90 1005.64 1005.45 1005.33 1005.31 1005.39 1005.59 1005.90 1006.33 1006.84 1007.42 1008.05 1008.69 1009.34 1010.00
1013.59 1013.49 1013.41 1013.32 1013.18 1012.99 1012.73 1012.42 1012.09 1011.77 1011.48 1011.25 1011.08 1010.97 1010.88 1010.79 1010.65 1010.45 1010.17 1009.80 1009.37 1008.89 1008.39 1007.90 1007.43 1006.99 1006.59 1006.21 1005.87 1005.58 1005.33 1005.16 1005.08 1005.11 1005.27 1005.55 1005.95 1006.45 1007.03 1007.65 1008.30 1008.97 1009.63
1013.60 1013.51 1013.43 1013.33 1013.21 1013.03 1012.79 1012.51 1012.20 1011.89 1011.60 1011.36 1011.15 1010.99 1010.83 1010.66 1010.46 1010.20 1009.88 1009.49 1009.06 1008.61 1008.15 1007.71 1007.28 1006.88 1006.49 1006.12 1005.78 1005.45 1005.18 1004.96 1004.84 1004.84 1004.96 1005.21 1005.58 1006.06 1006.62 1007.24 1007.89 1008.55 1009.22
1013.57 1013.47 1013.39 1013.29 1013.17 1013.01 1012.80 1012.54 1012.25 1011.95 1011.66 1011.39 1011.15 1010.92 1010.69 1010.45 1010.17 1009.85 1009.48 1009.08 1008.65 1008.21 1007.79 1007.38 1007.00 1006.63 1006.28 1005.93 1005.59 1005.27 1004.98 1004.75 1004.61 1004.58 1004.67 1004.89 1005.23 1005.69 1006.22 1006.82 1007.45 1008.10 1008.76
1013.53 1013.42 1013.32 1013.23 1013.12 1012.97 1012.77 1012.53 1012.26 1011.97 1011.67 1011.37 1011.09 1010.80 1010.51 1010.19 1009.84 1009.46 1009.05 1008.62 1008.19 1007.77 1007.37 1007.00 1006.65 1006.32 1006.00 1005.68 1005.36 1005.05 1004.77 1004.54 1004.39 1004.35 1004.42 1004.62 1004.93 1005.35 1005.85 1006.41 1007.02 1007.64 1008.29
1013.51 1013.37 1013.26 1013.16 1013.05 1012.91 1012.73 1012.50 1012.24 1011.95 1011.64 1011.31 1010.99 1010.65 1010.30 1009.92 1009.52 1009.09 1008.64 1008.20 1007.76 1007.34 1006.96 1006.62 1006.30 1006.00 1005.71 1005.42 1005.13 1004.85 1004.59 1004.38 1004.24 1004.19 1004.26 1004.44 1004.72 1005.10 1005.56 1006.08 1006.64 1007.23 1007.85
1013.48 1013.33 1013.21 1013.11 1013.00 1012.86 1012.69 1012.47 1012.20 1011.90 1011.58 1011.23 1010.87 1010.49 1010.09 1009.67 1009.23 1008.77 1008.31 1007.85 1007.41 1007.00 1006.63 1006.30 1006.01 1005.73 1005.47 1005.21 1004.95 1004.70 1004.47 1004.29 1004.17 1004.14 1004.20 1004.37 1004.63 1004.97 1005.39 1005.85 1006.36 1006.91 1007.48
1013.45 1013.30 1013.17 1013.07 1012.96 1012.83 1012.66 1012.44 1012.17 1011.85 1011.51 1011.13 1010.74 1010.33 1009.90 1009.46 1009.00 1008.53 1008.06 1007.60 1007.17 1006.77 1006.41 1006.10 1005.82 1005.56 1005.32 1005.08 1004.85 1004.63 1004.44 1004.29 1004.21 1004.19 1004.27 1004.43 1004.67 1004.98 1005.35 1005.77 1006.22 1006.71 1007.24
1013.42 1013.27 1013.15 1013.06 1012.96 1012.83 1012.65 1012.42 1012.14 1011.81 1011.44 1011.04 1010.62 1010.19 1009.75 1009.29 1008.83 1008.36 1007.90 1007.46 1007.04 1006.66 1006.32 1006.01 1005.74 1005.49 1005.26 1005.05 1004.84 1004.65 1004.50 1004.38 1004.32 1004.34 1004.43 1004.59 1004.82 1005.11 1005.44 1005.82 1006.23 1006.67 1007.15
1013.37 1013.24 1013.15 1013.07 1012.97 1012.84 1012.66 1012.42 1012.12 1011.77 1011.38 1010.96 1010.53 1010.08 1009.63 1009.18 1008.72 1008.27 1007.83 1007.41 1007.02 1006.65 1006.32 1006.03 1005.76 1005.52 1005.30 1005.09 1004.90 1004.74 1004.61 1004.52 1004.49 1004.53 1004.64 1004.81 1005.04 1005.32 1005.64 1005.99 1006.36 1006.76 1007.19
1013.31 1013.22 1013.15 1013.09 1013.01 1012.88 1012.69 1012.44 1012.12 1011.76 1011.35 1010.91 1010.47 1010.02 1009.56 1009.12 1008.68 1008.25 1007.84 1007.44 1007.07 1006.73 1006.41 1006.12 1005.86 1005.62 1005.39 1005.19 1005.00 1004.85 1004.73 1004.66 1004.65 1004.71 1004.84 1005.03 1005.28 1005.57 1005.88 1006.22 1006.58 1006.96 1007.36
1013.24 1013.19 1013.15 1013.10 1013.03 1012.90 1012.71 1012.45 1012.13 1011.75 1011.34 1010.90 1010.45 1010.00 1009.55 1009.11 1008.69 1008.28 1007.89 1007.52 1007.17 1006.84 1006.54 1006.25 1005.99 1005.74 1005.51 1005.30 1005.10 1004.94 1004.82 1004.76 1004.77 1004.85 1004.99 1005.21 1005.48 1005.79 1006.13 1006.48 1006.85 1007.23 1007.62
1013.14 1013.12 1013.10 1013.07 1013.00 1012.88 1012.69 1012.44 1012.12 1011.75 1011.34 1010.90 1010.46 1010.02 1009.59 1009.16 1008.76 1008.36 1007.99 1007.63 1007.30 1006.98 1006.68 1006.40 1006.13 1005.87 1005.63 1005.40 1005.19 1005.01 1004.88 1004.81 1004.82 1004.90 1005.07 1005.31 1005.61 1005.96 1006.33 1006.73 1007.13 1007.53 1007.93
Thickness
5764 5763 5762 5761 5760 5759 5758 5756 5755 5754 5753 5751 5750 5750 5749 5748 5748 5747 5747 5748 5748 5748 5747 5747 5747 5745 5743 5741 5739 5737 5736 5734 5733 5732 5731 5730 5729 5727 5727 5726 5725 5725 5724
5762 5761 5760 5759 5758 5757 5756 5755 5754 5752 5751 5750 5749 5748 5748 5747 5747 5746 5746 5746 5746 5746 5746 5746 5746 5744 5742 5740 5738 5737 5735 5734 5733 5732 5731 5729 5727 5727 5726 5725 5724 5724 5723
5762 5760 5758 5756 5756 5755 5755 5753 5752 5750 5749 5748 5747 5746 5745 5745 5745 5745 5745 5745 5745 5745 5744 5744 5743 5741 5740 5739 5738 5736 5735 5733 5732 5731 5730 5728 5728 5727 5726 5724 5723 5723 5722
5761 5760 5757 5755 5755 5754 5753 5751 5750 5748 5747 5745 5744 5744 5744 5744 5744 5744 5743 5743 5743 5743 5742 5742 5741 5740 5739 5738 5737 5736 5734 5733 5732 5730 5729 5727 5727 5726 5725 5724 5723 5722 5721
5761 5759 5757 5755 5753 5752 5751 5750 5748 5746 5744 5743 5743 5743 5743 5743 5743 5743 5742 5741 5741 5741 5740 5740 5739 5739 5737 5736 5735 5734 5734 5732 5730 5729 5728 5726 5725 5724 5723 5722 5721 5721 5720
5761 5760 5757 5755 5753 5751 5749 5748 5746 5745 5744 5742 5742 5741 5741 5741 5741 5740 5740 5740 5739 5739 5738 5737 5737 5736 5735 5734 5733 5732 5731 5730 5728 5727 5726 5724 5723 5722 5721 5720 5719 5718 5718
5762 5760 5757 5755 5753 5751 5749 5747 5745 5743 5741 5741 5738 5737 5738 5739 5739 5738 5738 5737 5737 5737 5736 5735 5734 5733 5732 5732 5731 5730 5729 5727 5726 5724 5723 5722 5721 5720 5718 5717 5717 5716 5716
5761 5759 5757 5755 5753 5750 5748 5746 5744 5741 5740 5739 5735 5731 5728 5731 5734 5736 5735 5735 5734 5734 5733 5733 5732 5731 5730 5730 5729 5728 5727 5725 5723 5722 5721 5719 5718 5717 5716 5715 5715 5714 5713
5761 5759 5756 5754 5752 5750 5748 5746 5744 5741 5738 5737 5736 5731 5725 5722 5725 5730 5731 5732 5731 5731 5731 5730 5730 5729 5728 5728 5727 5726 5725 5724 5722 5721 5719 5717 5716 5714 5713 5713 5712 5712 5711
5760 5758 5756 5755 5752 5750 5748 5746 5745 5742 5739 5735 5734 5732 5730 5727 5721 5721 5726 5728 5729 5728 5728 5728 5727 5727 5726 5726 5725 5724 5723 5722 5720 5719 5717 5716 5714 5712 5711 5710 5710 5710 5709
5759 5758 5756 5754 5752 5750 5748 5746 5744 5741 5739 5736 5733 5731 5728 5725 5723 5719 5717 5721 5723 5725 5725 5725 5724 5724 5724 5723 5722 5722 5721 5719 5718 5716 5715 5714 5712 5710 5709 5708 5708 5708 5707
5757 5756 5755 5753 5752 5750 5748 5745 5743 5740 5738 5735 5733 5731 5727 5724 5721 5718 5715 5715 5716 5720 5722 5722 5722 5721 5720 5720 5719 5719 5718 5717 5715 5713 5712 5710 5709 5707 5706 5705 5705 5705 5704
5755 5755 5754 5752 5750 5749 5747 5745 5742 5739 5737 5734 5732 5729 5727 5725 5723 5719 5716 5713 5712 5715 5717 5718 5719 5718 5717 5716 5716 5715 5714 5713 5712 5710 5709 5707 5705 5704 5703 5702 5702 5701 5700
5755 5754 5752 5751 5750 5748 5746 5743 5740 5737 5735 5733 5731 5728 5726 5724 5722 5719 5716 5712 5709 5709 5711 5713 5715 5714 5713 5712 5712 5711 5710 5709 5708 5707 5705 5704 5702 5701 5699 5698 5697 5696 5695
5754 5753 5751 5749 5748 5745 5743 5741 5737 5735 5733 5731 5728 5726 5724 5722 5720 5718 5716 5713 5708 5704 5705 5709 5709 5710 5708 5708 5707 5706 5705 5704 5703 5702 5701 5699 5698 5696 5695 5693 5691 5690 5689
5752 5751 5749 5747 5745 5743 5741 5738 5735 5733 5730 5727 5725 5723 5721 5719 5718 5716 5713 5710 5708 5704 5702 5705 5704 5705 5704 5704 5703 5702 5700 5699 5698 5697 5696 5694 5693 5691 5689 5688 5686 5685 5684
5750 5748 5746 5744 5742 5740 5738 5735 5732 5730 5727 5724 5722 5719 5717 5716 5713 5711 5709 5707 5704 5702 5699 5700 5700 5700 5699 5698 5698 5696 5696 5694 5693 5692 5690 5689 5687 5685 5683 5682 5681 5680 5679
5747 5745 5743 5741 5739 5737 5735 5732 5729 5726 5723 5720 5718 5716 5713 5712 5709 5707 5705 5703 5700 5699 5696 5695 5695 5694 5693 5693 5692 5691 5690 5689 5687 5686 5684 5683 5681 5680 5678 5677 5675 5674 5674
5744 5742 5740 5737 5735 5733 5731 5729 5726 5723 5720 5718 5715 5712 5710 5708 5705 5703 5701 5699 5697 5695 5693 5690 5689 5688 5687 5686 5684 5684 5683 5681 5681 5680 5678 5677 5676 5674 5673 5672 5671 5670 5669
5740 5739 5737 5734 5731 5729 5727 5725 5722 5719 5716 5714 5712 5709 5707 5705 5702 5699 5697 5695 5692 5689 5687 5685 5683 5682 5680 5679 5677 5676 5675 5674 5673 5673 5672 5671 5670 5669 5668 5667 5666 5665 5664
5736 5734 5732 5729 5727 5724 5722 5719 5717 5715 5712 5709 5707 5705 5704 5702 5700 5697 5694 5691 5688 5684 5682 5679 5677 5676 5674 5671 5670 5669 5668 5668 5667 5666 5665 5665 5664 5663 5661 5661 5660 5659 5658
5730 5728 5725 5722 5720 5719 5717 5714 5712 5709 5707 5704 5701 5699 5698 5697 5695 5692 5690 5687 5684 5680 5677 5674 5672 5670 5669 5667 5665 5663 5661 5660 5660 5661 5658 5658 5657 5656 5655 5654 5653 5652 5652
5724 5721 5719 5716 5714 5712 5710 5708 5706 5703 5701 5699 5696 5694 5693 5692 5689 5686 5684 5681 5679 5677 5675 5672 5669 5667 5665 5664 5660 5658 5656 5654 5654 5655 5652 5652 5651 5650 5650 5649 5648 5647 5646
5716 5714 5712 5709 5707 5706 5705 5702 5699 5697 5695 5693 5691 5689 5687 5685 5683 5680 5677 5675 5673 5672 5670 5668 5666 5664 5662 5660 5656 5654 5651 5649 5648 5647 5646 5645 5646 5644 5645 5643 5642 5641 5641
5709 5707 5705 5702 5700 5699 5697 5694 5692 5690 5688 5686 5685 5683 5681 5678 5676 5673 5670 5668 5666 5666 5665 5663 5661 5659 5657 5654 5651 5648 5645 5642 5642 5642 5640 5639 5640 5638 5638 5638 5637 5636 5635
5702 5700 5697 5695 5692 5690 5689 5688 5685 5683 5681 5679 5678 5676 5674 5672 5670 5667 5664 5661 5659 5659 5657 5656 5654 5652 5650 5648 5646 5643 5640 5637 5635 5635 5635 5633 5633 5631 5632 5632 5631 5630 5629